TimeCST,TemperatureF,Dew PointF,Humidity,Sea Level PressureIn,VisibilityMPH,Wind Direction,Wind SpeedMPH,Gust SpeedMPH,PrecipitationIn,Events,Conditions,WindDirDegrees,DateUTC
12:53 AM,46.9,37.0,68,30.29,10.0,North,5.8,-,N/A,,Clear,10,2012-11-18 06:53:00
1:53 AM,42.1,37.0,82,30.29,10.0,Calm,Calm,-,N/A,,Clear,0,2012-11-18 07:53:00
2:53 AM,48.0,36.0,63,30.28,10.0,NE,3.5,-,N/A,,Overcast,50,2012-11-18 08:53:00
3:53 AM,46.9,35.1,63,30.28,10.0,NE,3.5,-,N/A,,Clear,40,2012-11-18 09:53:00
4:53 AM,46.0,35.1,66,30.29,10.0,NE,4.6,-,N/A,,Partly Cloudy,40,2012-11-18 10:53:00
5:53 AM,46.0,35.1,66,30.31,10.0,NE,3.5,-,N/A,,Partly Cloudy,50,2012-11-18 11:53:00
6:53 AM,45.0,37.0,74,30.32,10.0,North,4.6,-,N/A,,Partly Cloudy,10,2012-11-18 12:53:00
7:53 AM,48.9,37.9,66,30.32,10.0,NE,5.8,-,N/A,,Overcast,40,2012-11-18 13:53:00
8:53 AM,55.0,41.0,59,30.32,10.0,ENE,11.5,17.3,0.00,,Partly Cloudy,60,2012-11-18 14:53:00
9:53 AM,59.0,43.0,55,30.32,10.0,ENE,9.2,-,0.00,,Clear,70,2012-11-18 15:53:00
10:53 AM,64.9,44.1,47,30.31,10.0,ENE,9.2,-,N/A,,Clear,70,2012-11-18 16:53:00
11:53 AM,66.9,44.1,44,30.29,10.0,Variable,4.6,-,N/A,,Clear,0,2012-11-18 17:53:00
12:53 PM,70.0,44.1,39,30.25,10.0,NNE,10.4,-,N/A,,Clear,20,2012-11-18 18:53:00
1:53 PM,71.1,45.0,39,30.24,10.0,ENE,8.1,-,N/A,,Clear,70,2012-11-18 19:53:00
2:53 PM,70.0,45.0,41,30.25,10.0,ENE,8.1,-,N/A,,Clear,70,2012-11-18 20:53:00
3:53 PM,68.0,46.0,45,30.24,10.0,NNE,4.6,-,N/A,,Clear,30,2012-11-18 21:53:00
4:53 PM,61.0,48.0,62,30.25,10.0,North,3.5,-,N/A,,Clear,10,2012-11-18 22:53:00
5:53 PM,55.9,46.9,72,30.27,10.0,North,3.5,-,N/A,,Clear,360,2012-11-18 23:53:00
6:53 PM,50.0,46.0,86,30.28,10.0,Calm,Calm,-,N/A,,Clear,0,2012-11-19 00:53:00
7:53 PM,54.0,46.0,75,30.28,10.0,Calm,Calm,-,N/A,,Clear,0,2012-11-19 01:53:00
8:53 PM,50.0,45.0,83,30.29,10.0,North,3.5,-,N/A,,Clear,360,2012-11-19 02:53:00
9:53 PM,51.1,44.1,77,30.30,10.0,North,3.5,-,N/A,,Clear,10,2012-11-19 03:53:00
10:53 PM,46.0,42.1,86,30.29,10.0,Calm,Calm,-,N/A,,Clear,0,2012-11-19 04:53:00
11:53 PM,44.1,41.0,89,30.29,10.0,NNE,3.5,-,N/A,,Clear,30,2012-11-19 05:53:00